Location: Borkenes
(68.7830°N, 16.1830°E)
Time: 16:40:28
(UTC+01:00)

Transit 4A - Visible Passes

Search period start: 10 December 2019 00:00
Search period end: 20 December 2019 00:00
Orbit: 870 x 975 km, 66.8° (Epoch: 09 December)

Date Brightness Start Highest point End Pass type
(mag) Time Alt. Az. Time Alt. Az. Time Alt. Az.
10 Dec 9.6 16:03:37 10° SE 16:06:33 14° ESE 16:08:09 13° E visible
10 Dec 8.6 17:46:00 10° SSW 17:51:21 33° SE 17:51:41 33° ESE visible
10 Dec 8.6 19:31:03 10° SW 19:35:12 42° SSW 19:35:12 42° SSW visible
10 Dec 9.9 21:17:09 10° W 21:18:43 19° W 21:18:43 19° W visible
11 Dec 9.4 16:11:41 10° SSE 16:15:28 17° ESE 16:17:26 15° E visible
11 Dec 8.4 17:54:55 10° SSW 18:00:29 39° SE 18:00:57 38° SE visible
11 Dec 8.6 19:40:17 10° WSW 19:44:28 44° SW 19:44:28 44° SW visible
11 Dec 10.0 21:26:29 10° W 21:27:59 18° W 21:27:59 18° W visible
12 Dec 9.2 16:20:03 10° SSE 16:24:27 21° ESE 16:26:40 17° E visible
12 Dec 8.2 18:03:56 10° SSW 18:09:40 45° SE 18:10:11 43° SE visible
12 Dec 8.6 19:49:34 10° WSW 19:53:42 44° SW 19:53:42 44° SW visible
12 Dec 10.0 21:35:49 10° W 21:37:13 18° W 21:37:13 18° W visible
13 Dec 9.0 16:28:38 10° S 16:33:28 25° ESE 16:35:53 20° E visible
13 Dec 8.0 18:13:02 10° SW 18:18:52 51° SE 18:19:24 49° SE visible
13 Dec 8.7 19:58:52 10° WSW 20:02:55 43° WSW 20:02:55 43° WSW visible
13 Dec 10.1 21:45:09 10° W 21:46:25 17° W 21:46:25 17° W visible
14 Dec 9.8 14:55:47 10° ESE 14:57:52 12° ESE 14:59:57 10° E visible
14 Dec 8.9 16:37:22 10° S 16:42:32 30° SE 16:45:04 22° E visible
14 Dec 7.9 18:22:11 10° SW 18:28:05 57° SSE 18:28:35 55° SE visible
14 Dec 8.8 20:08:12 10° W 20:12:05 42° WSW 20:12:05 42° WSW visible
14 Dec 10.2 21:54:29 10° W 21:55:36 16° W 21:55:36 16° W visible
15 Dec 9.7 15:03:30 10° SE 15:06:45 15° ESE 15:09:59 10° ENE visible
15 Dec 8.7 16:46:14 10° SSW 16:51:39 35° SE 16:54:14 24° E visible
15 Dec 7.8 18:31:23 10° SW 18:37:21 62° SSE 18:37:45 61° SE visible
15 Dec 8.9 20:17:31 10° W 20:21:15 39° WSW 20:21:15 39° WSW visible
15 Dec 10.2 22:03:49 10° WNW 22:04:46 15° WNW 22:04:46 15° WNW visible
16 Dec 9.5 15:11:42 10° SSE 15:15:42 19° ESE 15:19:39 10° ENE visible
16 Dec 8.5 16:55:11 10° SSW 17:00:47 41° SE 17:03:23 27° E visible
16 Dec 7.8 18:40:39 10° WSW 18:46:38 67° SSE 18:46:54 66° SE visible
16 Dec 9.0 20:26:52 10° W 20:30:25 37° W 20:30:25 37° W visible
16 Dec 10.3 22:13:09 10° WNW 22:13:55 14° WNW 22:13:55 14° WNW visible
17 Dec 9.3 15:20:09 10° SSE 15:24:41 22° ESE 15:29:01 11° ENE visible
17 Dec 8.3 17:04:13 10° SSW 17:09:58 47° SE 17:12:32 30° E visible
17 Dec 7.7 18:49:56 10° WSW 18:55:56 71° SSE 18:56:02 71° SSE visible
17 Dec 9.1 20:36:12 10° W 20:39:33 35° W 20:39:33 35° W visible
17 Dec 10.4 22:22:28 10° WNW 22:23:03 13° WNW 22:23:03 13° WNW visible
18 Dec 9.1 15:28:47 10° S 15:33:44 27° ESE 15:38:09 12° ENE visible
18 Dec 8.2 17:13:20 10° SW 17:19:11 53° SSE 17:21:39 32° E visible
18 Dec 7.8 18:59:15 10° WSW 19:05:10 74° S 19:05:10 74° S visible
18 Dec 9.3 20:45:32 10° W 20:48:40 32° W 20:48:40 32° W visible
18 Dec 10.4 22:31:48 10° WNW 22:32:11 12° WNW 22:32:11 12° WNW visible
19 Dec 8.9 15:37:34 10° S 15:42:49 32° SE 15:47:16 13° ENE visible
19 Dec 8.0 17:22:30 10° SW 17:28:26 59° SSE 17:30:46 35° E visible
19 Dec 7.8 19:08:34 10° W 19:14:17 73° SSW 19:14:17 73° SSW visible
19 Dec 9.4 20:54:52 10° WNW 20:57:47 30° W 20:57:47 30° W visible
19 Dec 10.5 22:41:09 10° WNW 22:41:18 11° WNW 22:41:18 11° WNW visible
